Time,TemperatureF,DewpointF,PressureIn,WindDirection,WindDirectionDegrees,WindSpeedMPH,WindSpeedGustMPH,Humidity,HourlyPrecipIn,Conditions,Clouds,dailyrainin,SoftwareType,DateUTC
2013-09-09 00:01:00,51.7,43.3,30.03,South,190,0.0,0.0,73,0.00,,,0.00,WeatherCatV1.21B27,2013-09-09 04:01:00,
2013-09-09 00:06:00,51.5,43.1,30.03,South,190,0.0,0.0,73,0.00,,,0.00,WeatherCatV1.21B27,2013-09-09 04:06:00,
2013-09-09 00:11:00,51.3,43.7,30.03,South,190,0.0,0.0,75,0.00,,,0.00,WeatherCatV1.21B27,2013-09-09 04:11:00,
2013-09-09 00:16:00,51.3,43.7,30.04,South,190,0.0,0.0,75,0.00,,,0.00,WeatherCatV1.21B27,2013-09-09 04:16:00,
2013-09-09 00:21:00,51.2,43.2,30.04,South,190,0.0,0.0,74,0.00,,,0.00,WeatherCatV1.21B27,2013-09-09 04:21:00,
2013-09-09 00:26:00,50.9,43.3,30.04,South,190,0.0,0.0,75,0.00,,,0.00,WeatherCatV1.21B27,2013-09-09 04:26:00,
2013-09-09 00:31:00,50.7,43.4,30.04,South,190,0.0,0.0,76,0.00,,,0.00,WeatherCatV1.21B27,2013-09-09 04:31:00,
2013-09-09 00:36:00,50.6,43.0,30.04,South,190,0.0,0.0,75,0.00,,,0.00,WeatherCatV1.21B27,2013-09-09 04:36:00,
2013-09-09 00:41:00,50.4,42.8,30.04,South,190,0.0,0.0,75,0.00,,,0.00,WeatherCatV1.21B27,2013-09-09 04:41:00,
2013-09-09 00:46:00,50.4,43.1,30.03,South,190,0.0,0.0,76,0.00,,,0.00,WeatherCatV1.21B27,2013-09-09 04:46:00,
2013-09-09 00:51:00,50.4,43.1,30.04,South,190,0.0,0.0,76,0.00,,,0.00,WeatherCatV1.21B27,2013-09-09 04:51:00,
2013-09-09 00:56:00,50.3,43.0,30.04,South,190,0.0,0.0,76,0.00,,,0.00,WeatherCatV1.21B27,2013-09-09 04:56:00,
2013-09-09 01:01:00,50.3,43.0,30.04,South,190,0.0,0.0,76,0.00,,,0.00,WeatherCatV1.21B27,2013-09-09 05:01:00,
2013-09-09 01:06:00,50.2,42.9,30.04,South,190,0.0,0.0,76,0.00,,,0.00,WeatherCatV1.21B27,2013-09-09 05:06:00,
2013-09-09 01:11:00,50.2,42.6,30.04,South,190,0.0,0.0,75,0.00,,,0.00,WeatherCatV1.21B27,2013-09-09 05:11:00,
2013-09-09 01:16:00,50.1,42.8,30.04,South,190,0.0,0.0,76,0.00,,,0.00,WeatherCatV1.21B27,2013-09-09 05:16:00,
2013-09-09 01:21:00,50.1,42.5,30.04,South,190,0.0,0.0,75,0.00,,,0.00,WeatherCatV1.21B27,2013-09-09 05:21:00,
2013-09-09 01:26:00,50.1,42.5,30.04,South,190,0.0,0.0,75,0.00,,,0.00,WeatherCatV1.21B27,2013-09-09 05:26:00,
2013-09-09 01:31:00,50.1,42.5,30.05,South,190,0.0,0.0,75,0.00,,,0.00,WeatherCatV1.21B27,2013-09-09 05:31:00,
2013-09-09 01:36:00,50.1,42.5,30.04,South,190,0.0,0.0,75,0.00,,,0.00,WeatherCatV1.21B27,2013-09-09 05:36:00,
2013-09-09 01:41:00,50.0,42.0,30.05,South,190,0.0,0.0,74,0.00,,,0.00,WeatherCatV1.21B27,2013-09-09 05:41:00,
2013-09-09 01:46:00,50.0,42.4,30.05,South,190,0.0,0.0,75,0.00,,,0.00,WeatherCatV1.21B27,2013-09-09 05:46:00,
2013-09-09 01:51:00,49.9,42.6,30.05,South,190,0.0,0.0,76,0.00,,,0.00,WeatherCatV1.21B27,2013-09-09 05:51:00,
2013-09-09 01:56:00,49.8,42.9,30.05,South,190,0.0,0.0,77,0.00,,,0.00,WeatherCatV1.21B27,2013-09-09 05:56:00,
2013-09-09 02:01:00,49.7,42.8,30.05,South,190,0.0,0.0,77,0.00,,,0.00,WeatherCatV1.21B27,2013-09-09 06:01:00,
2013-09-09 02:06:00,49.6,43.0,30.05,South,190,0.0,0.0,78,0.00,,,0.00,WeatherCatV1.21B27,2013-09-09 06:06:00,
2013-09-09 02:11:00,49.3,42.7,30.06,South,190,0.0,0.0,78,0.00,,,0.00,WeatherCatV1.21B27,2013-09-09 06:11:00,
2013-09-09 02:16:00,49.2,43.0,30.06,South,190,0.0,0.0,79,0.00,,,0.00,WeatherCatV1.21B27,2013-09-09 06:16:00,
2013-09-09 02:21:00,49.0,42.8,30.06,South,190,0.0,0.0,79,0.00,,,0.00,WeatherCatV1.21B27,2013-09-09 06:21:00,
2013-09-09 02:26:00,48.7,42.8,30.06,South,190,0.0,0.0,80,0.00,,,0.00,WeatherCatV1.21B27,2013-09-09 06:26:00,
2013-09-09 02:31:00,48.6,43.0,30.06,South,190,0.0,0.0,81,0.00,,,0.00,WeatherCatV1.21B27,2013-09-09 06:31:00,
2013-09-09 02:36:00,48.4,42.8,30.06,South,190,0.0,0.0,81,0.00,,,0.00,WeatherCatV1.21B27,2013-09-09 06:36:00,
2013-09-09 02:41:00,48.1,42.9,30.06,South,190,0.0,0.0,82,0.00,,,0.00,WeatherCatV1.21B27,2013-09-09 06:41:00,
2013-09-09 02:46:00,47.9,42.7,30.06,South,190,0.0,0.0,82,0.00,,,0.00,WeatherCatV1.21B27,2013-09-09 06:46:00,
2013-09-09 02:51:00,47.7,42.8,30.06,South,190,0.0,0.0,83,0.00,,,0.00,WeatherCatV1.21B27,2013-09-09 06:51:00,
2013-09-09 02:56:00,47.5,42.6,30.07,South,190,0.0,0.0,83,0.00,,,0.00,WeatherCatV1.21B27,2013-09-09 06:56:00,
2013-09-09 03:01:00,47.3,42.7,30.07,South,190,0.0,0.0,84,0.00,,,0.00,WeatherCatV1.21B27,2013-09-09 07:01:00,
2013-09-09 03:06:00,47.2,42.6,30.07,South,190,0.0,0.0,84,0.00,,,0.00,WeatherCatV1.21B27,2013-09-09 07:06:00,
2013-09-09 03:11:00,47.0,42.4,30.07,South,190,0.0,0.0,84,0.00,,,0.00,WeatherCatV1.21B27,2013-09-09 07:11:00,
2013-09-09 03:16:00,46.9,42.3,30.07,South,190,0.0,0.0,84,0.00,,,0.00,WeatherCatV1.21B27,2013-09-09 07:16:00,
2013-09-09 03:21:00,46.7,42.1,30.07,South,190,0.0,0.0,84,0.00,,,0.00,WeatherCatV1.21B27,2013-09-09 07:21:00,
2013-09-09 03:26:00,46.6,42.3,30.07,South,190,0.0,0.0,85,0.00,,,0.00,WeatherCatV1.21B27,2013-09-09 07:26:00,
2013-09-09 03:31:00,46.4,42.1,30.07,South,190,0.0,0.0,85,0.00,,,0.00,WeatherCatV1.21B27,2013-09-09 07:31:00,
2013-09-09 03:36:00,46.3,42.3,30.07,South,190,0.0,0.0,86,0.00,,,0.00,WeatherCatV1.21B27,2013-09-09 07:36:00,
2013-09-09 03:41:00,46.1,42.5,30.08,South,190,0.0,0.0,87,0.00,,,0.00,WeatherCatV1.21B27,2013-09-09 07:41:00,
2013-09-09 03:46:00,46.0,42.3,30.08,South,190,0.0,0.0,87,0.00,,,0.00,WeatherCatV1.21B27,2013-09-09 07:46:00,
2013-09-09 03:51:00,46.0,42.3,30.08,South,190,0.0,0.0,87,0.00,,,0.00,WeatherCatV1.21B27,2013-09-09 07:51:00,
2013-09-09 03:56:00,45.8,42.2,30.08,South,190,0.0,0.0,87,0.00,,,0.00,WeatherCatV1.21B27,2013-09-09 07:56:00,
2013-09-09 04:01:00,45.7,42.1,30.09,South,190,0.0,0.0,87,0.00,,,0.00,WeatherCatV1.21B27,2013-09-09 08:01:00,
2013-09-09 04:06:00,45.6,42.2,30.09,South,190,0.0,0.0,88,0.00,,,0.00,WeatherCatV1.21B27,2013-09-09 08:06:00,
2013-09-09 04:11:00,45.5,42.2,30.08,South,190,0.0,0.0,88,0.00,,,0.00,WeatherCatV1.21B27,2013-09-09 08:11:00,
2013-09-09 04:16:00,45.4,42.1,30.09,South,190,0.0,0.0,88,0.00,,,0.00,WeatherCatV1.21B27,2013-09-09 08:16:00,
2013-09-09 04:21:00,45.3,42.0,30.09,South,190,0.0,0.0,88,0.00,,,0.00,WeatherCatV1.21B27,2013-09-09 08:21:00,
2013-09-09 04:26:00,45.2,42.2,30.09,South,190,0.0,0.0,89,0.00,,,0.00,WeatherCatV1.21B27,2013-09-09 08:26:00,
2013-09-09 04:31:00,45.2,42.2,30.09,South,190,0.0,0.0,89,0.00,,,0.00,WeatherCatV1.21B27,2013-09-09 08:31:00,
2013-09-09 04:36:00,45.1,42.0,30.10,South,190,0.0,0.0,89,0.00,,,0.00,WeatherCatV1.21B27,2013-09-09 08:36:00,
2013-09-09 04:41:00,45.0,42.0,30.10,South,190,0.0,0.0,89,0.00,,,0.00,WeatherCatV1.21B27,2013-09-09 08:41:00,
2013-09-09 04:46:00,44.9,42.4,30.10,South,190,0.0,0.0,91,0.00,,,0.00,WeatherCatV1.21B27,2013-09-09 08:46:00,
2013-09-09 04:51:00,44.9,42.4,30.10,South,190,0.0,0.0,91,0.00,,,0.00,WeatherCatV1.21B27,2013-09-09 08:51:00,
2013-09-09 04:56:00,44.8,42.3,30.10,South,190,0.0,0.0,91,0.00,,,0.00,WeatherCatV1.21B27,2013-09-09 08:56:00,
2013-09-09 05:01:00,44.7,42.2,30.10,South,190,0.0,0.0,91,0.00,,,0.00,WeatherCatV1.21B27,2013-09-09 09:01:00,
2013-09-09 05:06:00,44.5,41.8,30.11,South,190,0.0,0.0,90,0.00,,,0.00,WeatherCatV1.21B27,2013-09-09 09:06:00,
2013-09-09 05:11:00,44.4,41.9,30.11,South,190,0.0,0.0,91,0.00,,,0.00,WeatherCatV1.21B27,2013-09-09 09:11:00,
2013-09-09 05:16:00,44.2,41.7,30.11,South,190,0.0,0.0,91,0.00,,,0.00,WeatherCatV1.21B27,2013-09-09 09:16:00,
2013-09-09 05:21:00,44.2,41.7,30.11,South,190,0.0,0.0,91,0.00,,,0.00,WeatherCatV1.21B27,2013-09-09 09:21:00,
2013-09-09 05:26:00,44.1,41.6,30.12,South,190,0.0,0.0,91,0.00,,,0.00,WeatherCatV1.21B27,2013-09-09 09:26:00,
2013-09-09 05:31:00,44.0,41.5,30.12,South,190,0.0,0.0,91,0.00,,,0.00,WeatherCatV1.21B27,2013-09-09 09:31:00,
2013-09-09 05:36:00,44.0,41.5,30.12,South,190,0.0,0.0,91,0.00,,,0.00,WeatherCatV1.21B27,2013-09-09 09:36:00,
2013-09-09 05:41:00,44.0,41.5,30.13,South,190,0.0,0.0,91,0.00,,,0.00,WeatherCatV1.21B27,2013-09-09 09:41:00,
2013-09-09 05:46:00,44.0,41.5,30.13,South,190,0.0,0.0,91,0.00,,,0.00,WeatherCatV1.21B27,2013-09-09 09:46:00,
2013-09-09 05:51:00,43.8,41.3,30.13,South,190,0.0,0.0,91,0.00,,,0.00,WeatherCatV1.21B27,2013-09-09 09:51:00,
2013-09-09 05:56:00,43.8,41.3,30.14,South,190,0.0,0.0,91,0.00,,,0.00,WeatherCatV1.21B27,2013-09-09 09:56:00,
2013-09-09 06:01:00,43.8,41.3,30.14,South,190,0.0,0.0,91,0.00,,,0.00,WeatherCatV1.21B27,2013-09-09 10:01:00,
2013-09-09 06:06:00,43.9,41.4,30.14,South,190,0.0,0.0,91,0.00,,,0.00,WeatherCatV1.21B27,2013-09-09 10:06:00,
2013-09-09 06:11:00,43.9,41.4,30.14,South,190,0.0,0.0,91,0.00,,,0.00,WeatherCatV1.21B27,2013-09-09 10:11:00,
2013-09-09 06:16:00,44.0,41.5,30.14,South,190,0.0,0.0,91,0.00,,,0.00,WeatherCatV1.21B27,2013-09-09 10:16:00,
2013-09-09 06:21:00,43.9,41.4,30.14,South,190,0.0,0.0,91,0.00,,,0.00,WeatherCatV1.21B27,2013-09-09 10:21:00,
2013-09-09 06:26:00,43.9,41.4,30.14,South,190,0.0,0.0,91,0.00,,,0.00,WeatherCatV1.21B27,2013-09-09 10:26:00,
2013-09-09 06:31:00,43.9,41.4,30.15,South,190,0.0,0.0,91,0.00,,,0.00,WeatherCatV1.21B27,2013-09-09 10:31:00,
2013-09-09 06:36:00,44.0,41.5,30.15,South,190,0.0,0.0,91,0.00,,,0.00,WeatherCatV1.21B27,2013-09-09 10:36:00,
2013-09-09 06:41:00,44.0,41.5,30.15,South,190,0.0,0.0,91,0.00,,,0.00,WeatherCatV1.21B27,2013-09-09 10:41:00,
2013-09-09 06:46:00,44.0,41.5,30.15,South,190,0.0,0.0,91,0.00,,,0.00,WeatherCatV1.21B27,2013-09-09 10:46:00,
2013-09-09 06:51:00,43.9,41.4,30.15,South,190,0.0,0.0,91,0.00,,,0.00,WeatherCatV1.21B27,2013-09-09 10:51:00,
2013-09-09 06:56:00,44.0,41.5,30.15,South,190,0.0,0.0,91,0.00,,,0.00,WeatherCatV1.21B27,2013-09-09 10:56:00,
2013-09-09 07:01:00,44.2,41.7,30.15,South,190,0.0,0.0,91,0.00,,,0.00,WeatherCatV1.21B27,2013-09-09 11:01:00,
2013-09-09 07:06:00,44.4,41.9,30.15,South,190,0.0,0.0,91,0.00,,,0.00,WeatherCatV1.21B27,2013-09-09 11:06:00,
2013-09-09 07:11:00,44.5,42.0,30.16,South,190,0.0,0.0,91,0.00,,,0.00,WeatherCatV1.21B27,2013-09-09 11:11:00,
2013-09-09 07:16:00,44.6,42.1,30.16,South,190,0.0,0.0,91,0.00,,,0.00,WeatherCatV1.21B27,2013-09-09 11:16:00,
2013-09-09 07:21:00,45.1,42.3,30.16,South,190,0.0,1.0,90,0.00,,,0.00,WeatherCatV1.21B27,2013-09-09 11:21:00,
2013-09-09 07:26:00,45.5,42.5,30.16,WSW,237,2.0,3.0,89,0.00,,,0.00,WeatherCatV1.21B27,2013-09-09 11:26:00,
2013-09-09 07:31:00,46.0,42.7,30.16,SW,215,0.0,3.0,88,0.00,,,0.00,WeatherCatV1.21B27,2013-09-09 11:31:00,
2013-09-09 07:36:00,46.5,43.1,30.16,SW,217,0.0,0.0,88,0.00,,,0.00,WeatherCatV1.21B27,2013-09-09 11:36:00,
2013-09-09 07:41:00,46.8,43.4,30.17,SW,217,0.0,0.0,88,0.00,,,0.00,WeatherCatV1.21B27,2013-09-09 11:41:00,
2013-09-09 07:46:00,47.0,43.6,30.17,SW,217,0.0,1.0,88,0.00,,,0.00,WeatherCatV1.21B27,2013-09-09 11:46:00,
2013-09-09 07:51:00,47.7,43.7,30.17,SW,225,0.0,2.0,86,0.00,,,0.00,WeatherCatV1.21B27,2013-09-09 11:51:00,
2013-09-09 07:56:00,48.3,44.3,30.17,SW,225,0.0,0.0,86,0.00,,,0.00,WeatherCatV1.21B27,2013-09-09 11:56:00,
2013-09-09 08:01:00,48.6,44.0,30.17,South,177,0.0,1.0,84,0.00,,,0.00,WeatherCatV1.21B27,2013-09-09 12:01:00,
2013-09-09 08:06:00,49.2,44.3,30.17,SW,229,0.0,2.0,83,0.00,,,0.00,WeatherCatV1.21B27,2013-09-09 12:06:00,
2013-09-09 08:11:00,49.7,44.4,30.17,SW,229,0.0,0.0,82,0.00,,,0.00,WeatherCatV1.21B27,2013-09-09 12:11:00,
2013-09-09 08:16:00,50.1,44.5,30.17,SW,229,0.0,0.0,81,0.00,,,0.00,WeatherCatV1.21B27,2013-09-09 12:16:00,
2013-09-09 08:21:00,50.7,45.1,30.17,SW,229,0.0,0.0,81,0.00,,,0.00,WeatherCatV1.21B27,2013-09-09 12:21:00,
2013-09-09 08:26:00,51.1,44.8,30.17,SW,229,0.0,0.0,79,0.00,,,0.00,WeatherCatV1.21B27,2013-09-09 12:26:00,
2013-09-09 08:31:00,51.7,45.1,30.17,SW,229,0.0,1.0,78,0.00,,,0.00,WeatherCatV1.21B27,2013-09-09 12:31:00,
2013-09-09 08:36:00,52.4,45.4,30.17,SSW,201,0.0,0.0,77,0.00,,,0.00,WeatherCatV1.21B27,2013-09-09 12:36:00,
2013-09-09 08:41:00,53.0,45.6,30.17,SSW,201,0.0,0.0,76,0.00,,,0.00,WeatherCatV1.21B27,2013-09-09 12:41:00,
2013-09-09 08:46:00,53.7,45.6,30.17,SSW,202,0.0,1.0,74,0.00,,,0.00,WeatherCatV1.21B27,2013-09-09 12:46:00,
2013-09-09 08:51:00,54.3,45.8,30.17,SSW,202,0.0,0.0,73,0.00,,,0.00,WeatherCatV1.21B27,2013-09-09 12:51:00,
2013-09-09 08:56:00,55.2,46.0,30.17,SSW,202,0.0,0.0,71,0.00,,,0.00,WeatherCatV1.21B27,2013-09-09 12:56:00,
2013-09-09 09:01:00,55.9,45.5,30.17,SSW,202,0.0,2.0,68,0.00,,,0.00,WeatherCatV1.21B27,2013-09-09 13:01:00,
2013-09-09 09:06:00,56.3,46.3,30.17,SSW,202,0.0,0.0,69,0.00,,,0.00,WeatherCatV1.21B27,2013-09-09 13:06:00,
2013-09-09 09:11:00,57.3,45.6,30.17,SSW,202,0.0,0.0,65,0.00,,,0.00,WeatherCatV1.21B27,2013-09-09 13:11:00,
2013-09-09 09:16:00,57.6,45.5,30.17,SSW,202,0.0,0.0,64,0.00,,,0.00,WeatherCatV1.21B27,2013-09-09 13:16:00,
2013-09-09 09:21:00,57.8,46.1,30.18,SSW,202,0.0,2.0,65,0.00,,,0.00,WeatherCatV1.21B27,2013-09-09 13:21:00,
2013-09-09 09:26:00,58.5,46.0,30.18,SSW,202,0.0,0.0,63,0.00,,,0.00,WeatherCatV1.21B27,2013-09-09 13:26:00,
2013-09-09 09:31:00,58.9,45.9,30.18,SSW,202,0.0,1.0,62,0.00,,,0.00,WeatherCatV1.21B27,2013-09-09 13:31:00,
2013-09-09 09:36:00,59.4,44.6,30.18,SSW,194,1.0,2.0,58,0.00,,,0.00,WeatherCatV1.21B27,2013-09-09 13:36:00,
2013-09-09 09:41:00,59.7,44.4,30.17,SW,234,5.0,5.0,57,0.00,,,0.00,WeatherCatV1.21B27,2013-09-09 13:41:00,
2013-09-09 09:46:00,59.6,43.9,30.17,WSW,238,0.0,1.0,56,0.00,,,0.00,WeatherCatV1.21B27,2013-09-09 13:46:00,
2013-09-09 09:51:00,60.1,43.4,30.18,South,174,0.0,0.0,54,0.00,,,0.00,WeatherCatV1.21B27,2013-09-09 13:51:00,
2013-09-09 09:56:00,60.8,44.5,30.17,SW,221,0.0,2.0,55,0.00,,,0.00,WeatherCatV1.21B27,2013-09-09 13:56:00,
2013-09-09 10:01:00,60.9,43.2,30.17,SW,226,3.0,4.0,52,0.00,,,0.00,WeatherCatV1.21B27,2013-09-09 14:01:00,
2013-09-09 10:06:00,60.2,41.0,30.18,WSW,251,0.0,3.0,49,0.00,,,0.00,WeatherCatV1.21B27,2013-09-09 14:06:00,
2013-09-09 10:11:00,60.4,42.7,30.17,SE,136,0.0,3.0,52,0.00,,,0.00,WeatherCatV1.21B27,2013-09-09 14:11:00,
2013-09-09 10:16:00,60.8,44.0,30.18,West,277,0.0,2.0,54,0.00,,,0.00,WeatherCatV1.21B27,2013-09-09 14:16:00,
2013-09-09 10:21:00,60.8,42.0,30.18,WSW,250,6.0,6.0,50,0.00,,,0.00,WeatherCatV1.21B27,2013-09-09 14:21:00,
2013-09-09 10:26:00,60.3,42.6,30.17,SSE,165,1.0,2.0,52,0.00,,,0.00,WeatherCatV1.21B27,2013-09-09 14:26:00,
2013-09-09 10:31:00,60.6,42.9,30.17,SSW,192,0.0,1.0,52,0.00,,,0.00,WeatherCatV1.21B27,2013-09-09 14:31:00,
2013-09-09 10:36:00,61.1,43.3,30.17,SW,228,0.0,5.0,52,0.00,,,0.00,WeatherCatV1.21B27,2013-09-09 14:36:00,
2013-09-09 10:41:00,61.5,43.7,30.17,WSW,245,0.0,0.0,52,0.00,,,0.00,WeatherCatV1.21B27,2013-09-09 14:41:00,
2013-09-09 10:46:00,61.8,44.0,30.17,ESE,123,0.0,4.0,52,0.00,,,0.00,WeatherCatV1.21B27,2013-09-09 14:46:00,
2013-09-09 10:51:00,61.9,43.0,30.17,WSW,246,5.0,7.0,50,0.00,,,0.00,WeatherCatV1.21B27,2013-09-09 14:51:00,
2013-09-09 10:56:00,61.8,42.4,30.17,SE,135,0.0,1.0,49,0.00,,,0.00,WeatherCatV1.21B27,2013-09-09 14:56:00,
2013-09-09 11:01:00,62.1,41.6,30.17,SE,136,2.0,3.0,47,0.00,,,0.00,WeatherCatV1.21B27,2013-09-09 15:01:00,
2013-09-09 11:06:00,62.1,41.6,30.16,SE,135,2.0,3.0,47,0.00,,,0.00,WeatherCatV1.21B27,2013-09-09 15:06:00,
2013-09-09 11:11:00,62.0,41.5,30.16,WSW,251,0.0,7.0,47,0.00,,,0.00,WeatherCatV1.21B27,2013-09-09 15:11:00,
2013-09-09 11:16:00,62.1,42.7,30.16,SSW,203,2.0,7.0,49,0.00,,,0.00,WeatherCatV1.21B27,2013-09-09 15:16:00,
2013-09-09 11:21:00,62.5,42.0,30.16,SSE,168,0.0,2.0,47,0.00,,,0.00,WeatherCatV1.21B27,2013-09-09 15:21:00,
2013-09-09 11:26:00,62.7,42.2,30.16,South,183,1.0,1.0,47,0.00,,,0.00,WeatherCatV1.21B27,2013-09-09 15:26:00,
2013-09-09 11:31:00,63.1,42.5,30.16,South,185,1.0,5.0,47,0.00,,,0.00,WeatherCatV1.21B27,2013-09-09 15:31:00,
2013-09-09 11:36:00,63.2,41.5,30.16,SE,141,1.0,3.0,45,0.00,,,0.00,WeatherCatV1.21B27,2013-09-09 15:36:00,
2013-09-09 11:41:00,63.1,42.0,30.16,West,266,0.0,4.0,46,0.00,,,0.00,WeatherCatV1.21B27,2013-09-09 15:41:00,
2013-09-09 11:46:00,63.3,41.6,30.15,WSW,250,2.0,4.0,45,0.00,,,0.00,WeatherCatV1.21B27,2013-09-09 15:46:00,
2013-09-09 11:51:00,63.4,42.2,30.15,SSE,147,0.0,7.0,46,0.00,,,0.00,WeatherCatV1.21B27,2013-09-09 15:51:00,
2013-09-09 11:56:00,63.5,41.8,30.15,WSW,237,4.0,7.0,45,0.00,,,0.00,WeatherCatV1.21B27,2013-09-09 15:56:00,
2013-09-09 12:01:00,63.2,42.1,30.15,SE,134,1.0,6.0,46,0.00,,,0.00,WeatherCatV1.21B27,2013-09-09 16:01:00,
2013-09-09 12:06:00,63.6,42.4,30.15,WSW,251,2.0,4.0,46,0.00,,,0.00,WeatherCatV1.21B27,2013-09-09 16:06:00,
2013-09-09 12:11:00,63.6,43.0,30.15,SSW,196,0.0,2.0,47,0.00,,,0.00,WeatherCatV1.21B27,2013-09-09 16:11:00,
2013-09-09 12:16:00,64.0,42.2,30.15,SSW,208,4.0,8.0,45,0.00,,,0.00,WeatherCatV1.21B27,2013-09-09 16:16:00,
2013-09-09 12:21:00,64.3,42.5,30.14,North,7,0.0,5.0,45,0.00,,,0.00,WeatherCatV1.21B27,2013-09-09 16:21:00,
2013-09-09 12:26:00,64.5,43.8,30.14,East,97,0.0,0.0,47,0.00,,,0.00,WeatherCatV1.21B27,2013-09-09 16:26:00,
2013-09-09 12:31:00,64.7,42.3,30.14,SSW,209,2.0,9.0,44,0.00,,,0.00,WeatherCatV1.21B27,2013-09-09 16:31:00,
2013-09-09 12:36:00,64.7,42.3,30.14,WSW,238,5.0,7.0,44,0.00,,,0.00,WeatherCatV1.21B27,2013-09-09 16:36:00,
2013-09-09 12:41:00,65.2,42.7,30.13,WSW,240,5.0,6.0,44,0.00,,,0.00,WeatherCatV1.21B27,2013-09-09 16:41:00,
2013-09-09 12:46:00,65.3,42.2,30.13,WNW,289,0.0,3.0,43,0.00,,,0.00,WeatherCatV1.21B27,2013-09-09 16:46:00,
2013-09-09 12:51:00,65.1,42.0,30.13,SE,140,2.0,6.0,43,0.00,,,0.00,WeatherCatV1.21B27,2013-09-09 16:51:00,
2013-09-09 12:56:00,65.0,42.0,30.13,SSW,208,0.0,5.0,43,0.00,,,0.00,WeatherCatV1.21B27,2013-09-09 16:56:00,
2013-09-09 13:01:00,65.3,41.6,30.13,WSW,241,5.0,5.0,42,0.00,,,0.00,WeatherCatV1.21B27,2013-09-09 17:01:00,
2013-09-09 13:06:00,65.3,41.6,30.13,SSW,213,6.0,9.0,42,0.00,,,0.00,WeatherCatV1.21B27,2013-09-09 17:06:00,
2013-09-09 13:11:00,65.4,41.7,30.13,SSE,147,2.0,5.0,42,0.00,,,0.00,WeatherCatV1.21B27,2013-09-09 17:11:00,
2013-09-09 13:16:00,65.9,42.2,30.13,SE,126,1.0,4.0,42,0.00,,,0.00,WeatherCatV1.21B27,2013-09-09 17:16:00,
2013-09-09 13:21:00,66.2,43.0,30.13,SW,224,0.0,6.0,43,0.00,,,0.00,WeatherCatV1.21B27,2013-09-09 17:21:00,
2013-09-09 13:26:00,66.5,42.7,30.13,SSW,213,0.0,3.0,42,0.00,,,0.00,WeatherCatV1.21B27,2013-09-09 17:26:00,
2013-09-09 13:31:00,66.6,42.2,30.13,SSE,165,0.0,6.0,41,0.00,,,0.00,WeatherCatV1.21B27,2013-09-09 17:31:00,
2013-09-09 13:36:00,66.5,43.3,30.13,WSW,256,0.0,0.0,43,0.00,,,0.00,WeatherCatV1.21B27,2013-09-09 17:36:00,
2013-09-09 13:41:00,66.3,43.1,30.13,WSW,255,0.0,8.0,43,0.00,,,0.00,WeatherCatV1.21B27,2013-09-09 17:41:00,
2013-09-09 13:46:00,66.0,42.9,30.12,SSW,205,2.0,7.0,43,0.00,,,0.00,WeatherCatV1.21B27,2013-09-09 17:46:00,
2013-09-09 13:51:00,65.9,44.0,30.12,SSW,196,0.0,3.0,45,0.00,,,0.00,WeatherCatV1.21B27,2013-09-09 17:51:00,
2013-09-09 13:56:00,65.8,42.7,30.12,West,266,2.0,4.0,43,0.00,,,0.00,WeatherCatV1.21B27,2013-09-09 17:56:00,
2013-09-09 14:01:00,65.9,42.8,30.12,West,281,0.0,7.0,43,0.00,,,0.00,WeatherCatV1.21B27,2013-09-09 18:01:00,
2013-09-09 14:06:00,65.9,43.4,30.12,SW,234,0.0,6.0,44,0.00,,,0.00,WeatherCatV1.21B27,2013-09-09 18:06:00,
2013-09-09 14:11:00,65.9,43.4,30.12,SW,229,0.0,3.0,44,0.00,,,0.00,WeatherCatV1.21B27,2013-09-09 18:11:00,
2013-09-09 14:16:00,66.1,44.7,30.12,SE,132,1.0,2.0,46,0.00,,,0.00,WeatherCatV1.21B27,2013-09-09 18:16:00,
2013-09-09 14:21:00,66.2,44.8,30.12,SW,225,0.0,4.0,46,0.00,,,0.00,WeatherCatV1.21B27,2013-09-09 18:21:00,
2013-09-09 14:26:00,66.4,45.5,30.12,WSW,238,0.0,1.0,47,0.00,,,0.00,WeatherCatV1.21B27,2013-09-09 18:26:00,
2013-09-09 14:31:00,66.8,45.3,30.11,WSW,258,2.0,7.0,46,0.00,,,0.00,WeatherCatV1.21B27,2013-09-09 18:31:00,
2013-09-09 14:36:00,67.2,45.1,30.11,ESE,111,3.0,3.0,45,0.00,,,0.00,WeatherCatV1.21B27,2013-09-09 18:36:00,
2013-09-09 14:41:00,67.3,44.6,30.11,SE,125,0.0,6.0,44,0.00,,,0.00,WeatherCatV1.21B27,2013-09-09 18:41:00,
2013-09-09 14:46:00,67.5,44.8,30.10,SSW,204,3.0,4.0,44,0.00,,,0.00,WeatherCatV1.21B27,2013-09-09 18:46:00,
2013-09-09 14:51:00,67.9,45.8,30.10,SSE,155,1.0,2.0,45,0.00,,,0.00,WeatherCatV1.21B27,2013-09-09 18:51:00,
2013-09-09 14:56:00,68.1,46.0,30.11,SSE,158,0.0,3.0,45,0.00,,,0.00,WeatherCatV1.21B27,2013-09-09 18:56:00,
2013-09-09 15:01:00,68.3,46.7,30.11,West,266,1.0,7.0,46,0.00,,,0.00,WeatherCatV1.21B27,2013-09-09 19:01:00,
2013-09-09 15:06:00,68.1,46.5,30.11,SSW,196,2.0,5.0,46,0.00,,,0.00,WeatherCatV1.21B27,2013-09-09 19:06:00,
2013-09-09 15:11:00,67.8,46.3,30.11,WSW,247,1.0,3.0,46,0.00,,,0.00,WeatherCatV1.21B27,2013-09-09 19:11:00,
2013-09-09 15:16:00,67.4,45.9,30.11,West,260,0.0,8.0,46,0.00,,,0.00,WeatherCatV1.21B27,2013-09-09 19:16:00,
2013-09-09 15:21:00,67.1,45.6,30.11,SSE,160,2.0,10.0,46,0.00,,,0.00,WeatherCatV1.21B27,2013-09-09 19:21:00,
2013-09-09 15:27:00,66.9,44.9,30.11,SW,227,5.0,11.0,45,0.00,,,0.00,WeatherCatV1.21B27,2013-09-09 19:27:00,
2013-09-09 15:32:00,66.7,45.3,30.11,WSW,249,0.0,4.0,46,0.00,,,0.00,WeatherCatV1.21B27,2013-09-09 19:32:00,
2013-09-09 15:37:00,67.0,46.7,30.11,SSE,159,0.0,0.0,48,0.00,,,0.00,WeatherCatV1.21B27,2013-09-09 19:37:00,
2013-09-09 15:42:00,66.9,45.4,30.11,SW,234,2.0,9.0,46,0.00,,,0.00,WeatherCatV1.21B27,2013-09-09 19:42:00,
2013-09-09 15:47:00,66.6,45.7,30.11,ESE,116,0.0,3.0,47,0.00,,,0.00,WeatherCatV1.21B27,2013-09-09 19:47:00,
2013-09-09 15:52:00,66.5,46.2,30.11,SW,219,1.0,5.0,48,0.00,,,0.00,WeatherCatV1.21B27,2013-09-09 19:52:00,
2013-09-09 15:57:00,66.6,46.3,30.11,ESE,107,1.0,2.0,48,0.00,,,0.00,WeatherCatV1.21B27,2013-09-09 19:57:00,
2013-09-09 16:02:00,66.7,46.9,30.11,WSW,238,3.0,8.0,49,0.00,,,0.00,WeatherCatV1.21B27,2013-09-09 20:02:00,
2013-09-09 16:07:00,66.8,47.5,30.11,SSW,204,0.0,1.0,50,0.00,,,0.00,WeatherCatV1.21B27,2013-09-09 20:07:00,
2013-09-09 16:12:00,66.9,47.7,30.11,SW,231,5.0,5.0,50,0.00,,,0.00,WeatherCatV1.21B27,2013-09-09 20:12:00,
2013-09-09 16:17:00,66.9,47.7,30.11,SW,218,0.0,3.0,50,0.00,,,0.00,WeatherCatV1.21B27,2013-09-09 20:17:00,
2013-09-09 16:22:00,67.0,47.7,30.11,WSW,242,0.0,2.0,50,0.00,,,0.00,WeatherCatV1.21B27,2013-09-09 20:22:00,
2013-09-09 16:27:00,67.1,47.3,30.11,SSW,208,0.0,0.0,49,0.00,,,0.00,WeatherCatV1.21B27,2013-09-09 20:27:00,
2013-09-09 16:32:00,67.2,47.4,30.11,SW,227,1.0,8.0,49,0.00,,,0.00,WeatherCatV1.21B27,2013-09-09 20:32:00,
2013-09-09 16:37:00,67.1,47.3,30.11,West,269,3.0,6.0,49,0.00,,,0.00,WeatherCatV1.21B27,2013-09-09 20:37:00,
2013-09-09 16:42:00,66.9,47.7,30.10,West,270,4.0,4.0,50,0.00,,,0.00,WeatherCatV1.21B27,2013-09-09 20:42:00,
2013-09-09 16:47:00,66.9,48.2,30.10,West,265,0.0,0.0,51,0.00,,,0.00,WeatherCatV1.21B27,2013-09-09 20:47:00,
2013-09-09 16:52:00,66.8,48.6,30.10,WSW,243,0.0,1.0,52,0.00,,,0.00,WeatherCatV1.21B27,2013-09-09 20:52:00,
2013-09-09 16:57:00,66.8,48.1,30.10,West,273,1.0,3.0,51,0.00,,,0.00,WeatherCatV1.21B27,2013-09-09 20:57:00,
2013-09-09 17:02:00,66.9,49.2,30.10,WSW,248,0.0,5.0,53,0.00,,,0.00,WeatherCatV1.21B27,2013-09-09 21:02:00,
2013-09-09 17:07:00,67.0,50.3,30.10,SSE,156,0.0,2.0,55,0.00,,,0.00,WeatherCatV1.21B27,2013-09-09 21:07:00,
2013-09-09 17:12:00,66.9,51.2,30.10,South,169,0.0,1.0,57,0.00,,,0.00,WeatherCatV1.21B27,2013-09-09 21:12:00,
2013-09-09 17:17:00,66.9,52.1,30.10,ESE,113,1.0,2.0,59,0.00,,,0.00,WeatherCatV1.21B27,2013-09-09 21:17:00,
2013-09-09 17:22:00,66.7,52.4,30.10,SE,131,2.0,4.0,60,0.00,,,0.00,WeatherCatV1.21B27,2013-09-09 21:22:00,
2013-09-09 17:27:00,66.3,52.0,30.10,South,169,1.0,3.0,60,0.00,,,0.00,WeatherCatV1.21B27,2013-09-09 21:27:00,
2013-09-09 17:32:00,65.9,52.1,30.10,SW,235,3.0,4.0,61,0.00,,,0.00,WeatherCatV1.21B27,2013-09-09 21:32:00,
2013-09-09 17:37:00,65.5,52.1,30.11,SSE,163,0.0,3.0,62,0.00,,,0.00,WeatherCatV1.21B27,2013-09-09 21:37:00,
2013-09-09 17:42:00,65.3,52.4,30.10,WSW,252,0.0,3.0,63,0.00,,,0.00,WeatherCatV1.21B27,2013-09-09 21:42:00,
2013-09-09 17:47:00,65.2,52.7,30.10,SW,229,1.0,1.0,64,0.00,,,0.00,WeatherCatV1.21B27,2013-09-09 21:47:00,
2013-09-09 17:52:00,65.0,52.1,30.10,SE,146,0.0,3.0,63,0.00,,,0.00,WeatherCatV1.21B27,2013-09-09 21:52:00,
2013-09-09 17:57:00,64.8,52.3,30.10,SSE,160,0.0,2.0,64,0.00,,,0.00,WeatherCatV1.21B27,2013-09-09 21:57:00,
2013-09-09 18:02:00,64.4,52.4,30.10,SE,129,1.0,5.0,65,0.00,,,0.00,WeatherCatV1.21B27,2013-09-09 22:02:00,
2013-09-09 18:07:00,64.3,51.9,30.10,SSE,150,1.0,3.0,64,0.00,,,0.00,WeatherCatV1.21B27,2013-09-09 22:07:00,
2013-09-09 18:12:00,64.0,51.6,30.10,WNW,290,0.0,2.0,64,0.00,,,0.00,WeatherCatV1.21B27,2013-09-09 22:12:00,
2013-09-09 18:17:00,63.8,51.4,30.10,SE,125,0.0,2.0,64,0.00,,,0.00,WeatherCatV1.21B27,2013-09-09 22:17:00,
2013-09-09 18:22:00,63.4,51.0,30.10,SW,228,0.0,1.0,64,0.00,,,0.00,WeatherCatV1.21B27,2013-09-09 22:22:00,
2013-09-09 18:27:00,63.1,50.3,30.10,SSE,163,0.0,2.0,63,0.00,,,0.00,WeatherCatV1.21B27,2013-09-09 22:27:00,
2013-09-09 18:32:00,62.9,50.1,30.10,SSE,163,0.0,1.0,63,0.00,,,0.00,WeatherCatV1.21B27,2013-09-09 22:32:00,
2013-09-09 18:37:00,62.7,49.9,30.10,SSE,163,0.0,0.0,63,0.00,,,0.00,WeatherCatV1.21B27,2013-09-09 22:37:00,
2013-09-09 18:42:00,62.4,49.6,30.10,SSE,161,0.0,2.0,63,0.00,,,0.00,WeatherCatV1.21B27,2013-09-09 22:42:00,
2013-09-09 18:47:00,62.2,49.4,30.10,SSE,161,0.0,0.0,63,0.00,,,0.00,WeatherCatV1.21B27,2013-09-09 22:47:00,
2013-09-09 18:52:00,61.9,49.2,30.10,SSE,161,0.0,0.0,63,0.00,,,0.00,WeatherCatV1.21B27,2013-09-09 22:52:00,
2013-09-09 18:57:00,61.7,49.0,30.10,SSE,161,0.0,0.0,63,0.00,,,0.00,WeatherCatV1.21B27,2013-09-09 22:57:00,
2013-09-09 19:02:00,61.4,49.1,30.10,SSE,161,0.0,0.0,64,0.00,,,0.00,WeatherCatV1.21B27,2013-09-09 23:02:00,
2013-09-09 19:07:00,61.2,49.3,30.10,SSE,161,0.0,0.0,65,0.00,,,0.00,WeatherCatV1.21B27,2013-09-09 23:07:00,
2013-09-09 19:12:00,60.8,49.4,30.10,SSE,161,0.0,0.0,66,0.00,,,0.00,WeatherCatV1.21B27,2013-09-09 23:12:00,
2013-09-09 19:17:00,60.5,49.5,30.10,SSE,161,0.0,0.0,67,0.00,,,0.00,WeatherCatV1.21B27,2013-09-09 23:17:00,
2013-09-09 19:22:00,60.2,49.2,30.10,SSE,161,0.0,0.0,67,0.00,,,0.00,WeatherCatV1.21B27,2013-09-09 23:22:00,
2013-09-09 19:27:00,60.0,49.0,30.10,SSE,161,0.0,0.0,67,0.00,,,0.00,WeatherCatV1.21B27,2013-09-09 23:27:00,
2013-09-09 19:32:00,59.9,49.3,30.10,South,169,0.0,0.0,68,0.00,,,0.00,WeatherCatV1.21B27,2013-09-09 23:32:00,
2013-09-09 19:37:00,59.8,49.2,30.10,SE,125,0.0,2.0,68,0.00,,,0.00,WeatherCatV1.21B27,2013-09-09 23:37:00,
2013-09-09 19:42:00,59.7,49.1,30.09,SE,137,0.0,0.0,68,0.00,,,0.00,WeatherCatV1.21B27,2013-09-09 23:42:00,
2013-09-09 19:47:00,59.6,49.4,30.10,SE,137,0.0,0.0,69,0.00,,,0.00,WeatherCatV1.21B27,2013-09-09 23:47:00,
2013-09-09 19:52:00,59.5,49.3,30.10,SE,137,0.0,0.0,69,0.00,,,0.00,WeatherCatV1.21B27,2013-09-09 23:52:00,
2013-09-09 19:57:00,59.3,49.5,30.09,SE,137,0.0,1.0,70,0.00,,,0.00,WeatherCatV1.21B27,2013-09-09 23:57:00,
2013-09-09 20:02:00,59.1,49.7,30.10,SE,137,0.0,0.0,71,0.00,,,0.00,WeatherCatV1.21B27,2013-09-10 00:02:00,
2013-09-09 20:07:00,58.9,49.5,30.10,SE,137,0.0,0.0,71,0.00,,,0.00,WeatherCatV1.21B27,2013-09-10 00:07:00,
2013-09-09 20:12:00,58.8,49.8,30.10,WSW,246,0.0,5.0,72,0.00,,,0.00,WeatherCatV1.21B27,2013-09-10 00:12:00,
2013-09-09 20:17:00,58.7,49.7,30.10,SSW,202,0.0,4.0,72,0.00,,,0.00,WeatherCatV1.21B27,2013-09-10 00:17:00,
2013-09-09 20:22:00,58.8,49.8,30.10,SSW,203,0.0,1.0,72,0.00,,,0.00,WeatherCatV1.21B27,2013-09-10 00:22:00,
2013-09-09 20:27:00,58.7,49.7,30.10,West,271,3.0,3.0,72,0.00,,,0.00,WeatherCatV1.21B27,2013-09-10 00:27:00,
2013-09-09 20:32:00,58.7,49.7,30.10,SSW,194,0.0,0.0,72,0.00,,,0.00,WeatherCatV1.21B27,2013-09-10 00:32:00,
2013-09-09 20:37:00,58.7,50.1,30.10,SSW,192,0.0,1.0,73,0.00,,,0.00,WeatherCatV1.21B27,2013-09-10 00:37:00,
2013-09-09 20:42:00,58.6,50.0,30.10,WSW,244,0.0,0.0,73,0.00,,,0.00,WeatherCatV1.21B27,2013-09-10 00:42:00,
2013-09-09 20:47:00,58.6,50.0,30.10,SSE,157,0.0,0.0,73,0.00,,,0.00,WeatherCatV1.21B27,2013-09-10 00:47:00,
2013-09-09 20:52:00,58.5,49.9,30.10,WNW,300,0.0,0.0,73,0.00,,,0.00,WeatherCatV1.21B27,2013-09-10 00:52:00,
2013-09-09 20:57:00,58.5,49.9,30.10,WNW,300,0.0,0.0,73,0.00,,,0.00,WeatherCatV1.21B27,2013-09-10 00:57:00,
2013-09-09 21:02:00,58.5,49.9,30.11,WNW,296,0.0,0.0,73,0.00,,,0.00,WeatherCatV1.21B27,2013-09-10 01:02:00,
2013-09-09 21:07:00,58.5,49.9,30.11,WNW,296,0.0,1.0,73,0.00,,,0.00,WeatherCatV1.21B27,2013-09-10 01:07:00,
2013-09-09 21:12:00,58.5,49.9,30.11,WNW,296,0.0,0.0,73,0.00,,,0.00,WeatherCatV1.21B27,2013-09-10 01:12:00,
2013-09-09 21:17:00,58.5,50.2,30.11,WNW,294,0.0,1.0,74,0.00,,,0.00,WeatherCatV1.21B27,2013-09-10 01:17:00,
2013-09-09 21:22:00,58.5,50.2,30.10,West,280,0.0,1.0,74,0.00,,,0.00,WeatherCatV1.21B27,2013-09-10 01:22:00,
2013-09-09 21:27:00,58.4,50.5,30.10,WSW,254,0.0,0.0,75,0.00,,,0.00,WeatherCatV1.21B27,2013-09-10 01:27:00,
2013-09-09 21:32:00,58.4,50.5,30.10,WSW,254,0.0,0.0,75,0.00,,,0.00,WeatherCatV1.21B27,2013-09-10 01:32:00,
2013-09-09 21:37:00,58.4,50.5,30.10,WSW,252,0.0,1.0,75,0.00,,,0.00,WeatherCatV1.21B27,2013-09-10 01:37:00,
2013-09-09 21:42:00,58.3,50.8,30.10,WSW,252,0.0,1.0,76,0.00,,,0.00,WeatherCatV1.21B27,2013-09-10 01:42:00,
2013-09-09 21:47:00,58.2,50.7,30.10,WSW,252,0.0,0.0,76,0.00,,,0.00,WeatherCatV1.21B27,2013-09-10 01:47:00,
2013-09-09 21:52:00,58.2,51.0,30.10,WSW,252,0.0,0.0,77,0.00,,,0.00,WeatherCatV1.21B27,2013-09-10 01:52:00,
2013-09-09 21:57:00,58.1,50.9,30.10,WSW,252,0.0,0.0,77,0.00,,,0.00,WeatherCatV1.21B27,2013-09-10 01:57:00,
2013-09-09 22:02:00,58.0,50.8,30.10,WSW,252,0.0,0.0,77,0.00,,,0.00,WeatherCatV1.21B27,2013-09-10 02:02:00,
2013-09-09 22:07:00,58.0,50.8,30.11,WSW,252,0.0,0.0,77,0.00,,,0.00,WeatherCatV1.21B27,2013-09-10 02:07:00,
2013-09-09 22:12:00,58.0,50.8,30.10,WSW,256,1.0,3.0,77,0.00,,,0.00,WeatherCatV1.21B27,2013-09-10 02:12:00,
2013-09-09 22:17:00,58.0,50.8,30.11,WSW,256,0.0,0.0,77,0.00,,,0.00,WeatherCatV1.21B27,2013-09-10 02:17:00,
2013-09-09 22:22:00,58.1,50.9,30.11,WSW,248,0.0,2.0,77,0.00,,,0.00,WeatherCatV1.21B27,2013-09-10 02:22:00,
2013-09-09 22:27:00,58.1,50.9,30.11,SSW,196,0.0,1.0,77,0.00,,,0.00,WeatherCatV1.21B27,2013-09-10 02:27:00,
2013-09-09 22:32:00,58.1,50.9,30.11,West,270,0.0,1.0,77,0.00,,,0.00,WeatherCatV1.21B27,2013-09-10 02:32:00,
2013-09-09 22:37:00,58.1,50.9,30.11,WSW,246,0.0,0.0,77,0.00,,,0.00,WeatherCatV1.21B27,2013-09-10 02:37:00,
2013-09-09 22:42:00,58.1,50.9,30.11,WSW,245,0.0,1.0,77,0.00,,,0.00,WeatherCatV1.21B27,2013-09-10 02:42:00,
2013-09-09 22:47:00,58.1,50.9,30.11,SSE,158,0.0,2.0,77,0.00,,,0.00,WeatherCatV1.21B27,2013-09-10 02:47:00,
2013-09-09 22:52:00,58.1,50.9,30.11,SSE,158,0.0,0.0,77,0.00,,,0.00,WeatherCatV1.21B27,2013-09-10 02:52:00,
2013-09-09 22:57:00,58.1,50.9,30.11,SW,236,0.0,1.0,77,0.00,,,0.00,WeatherCatV1.21B27,2013-09-10 02:57:00,
2013-09-09 23:02:00,58.2,51.0,30.11,NNW,345,0.0,1.0,77,0.00,,,0.00,WeatherCatV1.21B27,2013-09-10 03:02:00,
2013-09-09 23:07:00,58.2,51.0,30.11,West,280,0.0,0.0,77,0.00,,,0.00,WeatherCatV1.21B27,2013-09-10 03:07:00,
2013-09-09 23:12:00,58.1,50.9,30.11,SW,215,0.0,0.0,77,0.00,,,0.00,WeatherCatV1.21B27,2013-09-10 03:12:00,
2013-09-09 23:17:00,58.1,50.9,30.10,SW,215,0.0,0.0,77,0.00,,,0.00,WeatherCatV1.21B27,2013-09-10 03:17:00,
2013-09-09 23:22:00,58.1,50.9,30.10,SSW,205,1.0,1.0,77,0.00,,,0.00,WeatherCatV1.21B27,2013-09-10 03:22:00,
2013-09-09 23:27:00,58.2,51.0,30.10,SSE,152,0.0,2.0,77,0.00,,,0.00,WeatherCatV1.21B27,2013-09-10 03:27:00,
2013-09-09 23:32:00,58.2,51.0,30.09,SE,142,0.0,1.0,77,0.00,,,0.00,WeatherCatV1.21B27,2013-09-10 03:32:00,
2013-09-09 23:37:00,58.2,51.0,30.09,SSE,147,0.0,0.0,77,0.00,,,0.00,WeatherCatV1.21B27,2013-09-10 03:37:00,
2013-09-09 23:42:00,58.2,51.0,30.09,SSE,148,0.0,0.0,77,0.00,,,0.00,WeatherCatV1.21B27,2013-09-10 03:42:00,
2013-09-09 23:47:00,58.1,50.9,30.09,WSW,237,0.0,4.0,77,0.00,,,0.00,WeatherCatV1.21B27,2013-09-10 03:47:00,
2013-09-09 23:52:00,58.1,50.9,30.09,WSW,238,0.0,0.0,77,0.00,,,0.00,WeatherCatV1.21B27,2013-09-10 03:52:00,
2013-09-09 23:57:00,58.0,50.5,30.10,South,181,0.0,1.0,76,0.00,,,0.00,WeatherCatV1.21B27,2013-09-10 03:57:00,